カタログに戻る

TIANMU-1 06

運用中科学SSO
NORAD 55976·PAYLOAD·🇨🇳 China

打ち上げ Mar 22, 2023 から Jiuquan Satellite Launch Center

Loading…

次のパス (今後24時間)

TLE

最新Source: Space-Track

元期: Sep 14, 2026, 13:54 UTC

1 55976U 23039D   26257.57932047  .00013508  00000-0  24132-3 0  9990
2 55976  97.5252  75.5485 0003538 125.6809 234.4772 15.50156432194687

AllMySatでTIANMU-1 06をリアルタイム追跡

Download on the App Store